| time (UTC) | temp F | wind direction | speed MPH | gust MPH | rain 1hr in | rain 24hr in | rain mn in | humidity % | barometer mb |
| 20260905150115 | 56 | 0.0 | 0.0 | 0.00 | 0.00 | 0.00 | 81 | ||
| 20260905121435 | 57 | 0.0 | 0.0 | 0.00 | 0.00 | 0.00 | 77 | ||
| 20260905074328 | 58 | 232 | 2.0 | 5.0 | 0.00 | 0.00 | 0.00 | 68 | 1013.6 |
| 20260905073709 | 59 | 238 | 2.0 | 5.0 | 0.00 | 0.00 | 0.00 | 69 | 1013.5 |
| 20260905073356 | 58 | 215 | 1.0 | 3.0 | 0.00 | 0.00 | 0.00 | 69 | 1013.5 |
| 20260905072615 | 59 | 213 | 1.0 | 3.0 | 0.00 | 0.00 | 0.00 | 68 | 1013.5 |
| 20260905072051 | 59 | 213 | 1.0 | 3.0 | 0.00 | 0.00 | 0.00 | 68 | 1013.5 |
| 20260905071551 | 59 | 214 | 2.0 | 4.0 | 0.00 | 0.00 | 0.00 | 68 | 1013.4 |
| 20260905071036 | 60 | 215 | 2.0 | 4.0 | 0.00 | 0.00 | 0.00 | 69 | 1013.5 |
| 20260905070529 | 60 | 214 | 2.0 | 4.0 | 0.00 | 0.00 | 0.00 | 69 | 1013.5 |
| 20260905070027 | 60 | 214 | 2.0 | 4.0 | 0.00 | 0.00 | 0.00 | 69 | 1013.4 |
| 20260905065526 | 60 | 220 | 2.0 | 4.0 | 0.00 | 0.00 | 0.00 | 68 | 1013.4 |
| 20260905064958 | 60 | 223 | 1.0 | 3.0 | 0.00 | 0.00 | 0.00 | 68 | 1013.5 |
| 20260905064446 | 60 | 224 | 2.0 | 4.0 | 0.00 | 0.00 | 0.00 | 67 | 1013.5 |
| 20260905063922 | 60 | 226 | 1.0 | 4.0 | 0.00 | 0.00 | 0.00 | 67 | 1013.6 |
| 20260905063353 | 60 | 227 | 0.0 | 3.0 | 0.00 | 0.00 | 0.00 | 67 | 1013.6 |
| 20260905062824 | 60 | 228 | 1.0 | 3.0 | 0.00 | 0.00 | 0.00 | 67 | 1013.6 |
| 20260905062531 | 60 | 229 | 1.0 | 3.0 | 0.00 | 0.00 | 0.00 | 66 | 1013.5 |
| 20260905061752 | 60 | 229 | 1.0 | 3.0 | 0.00 | 0.00 | 0.00 | 67 | 1013.5 |
| 20260905061250 | 61 | 230 | 1.0 | 4.0 | 0.00 | 0.00 | 0.00 | 67 | 1013.5 |
| 20260905060750 | 61 | 231 | 2.0 | 4.0 | 0.00 | 0.00 | 0.00 | 67 | 1013.5 |
| 20260905060249 | 61 | 240 | 1.0 | 4.0 | 0.00 | 0.00 | 0.00 | 67 | 1013.5 |
| 20260905055749 | 61 | 261 | 1.0 | 3.0 | 0.00 | 0.00 | 0.00 | 67 | 1013.5 |
| 20260905055244 | 61 | 267 | 1.0 | 3.0 | 0.00 | 0.00 | 0.00 | 67 | 1013.6 |
| 20260905054742 | 61 | 307 | 0.0 | 2.0 | 0.00 | 0.00 | 0.00 | 68 | 1013.6 |
| 20260905054243 | 61 | 307 | 1.0 | 2.0 | 0.00 | 0.00 | 0.00 | 67 | 1013.5 |
| 20260905054003 | 62 | 309 | 0.0 | 2.0 | 0.00 | 0.00 | 0.00 | 66 | 1013.6 |
| 20260905053058 | 62 | 0.0 | 0.0 | 0.00 | 0.00 | 0.00 | 66 | ||
| 20260905051213 | 63 | 317 | 4.0 | 7.0 | 0.00 | 0.00 | 0.00 | 66 | 1013.8 |
| 20260905050657 | 63 | 312 | 4.0 | 7.0 | 0.00 | 0.00 | 0.00 | 66 | 1013.8 |
| 20260905050138 | 63 | 313 | 3.0 | 4.0 | 0.00 | 0.00 | 0.00 | 66 | 1013.8 |
| 20260905015626 | 75 | 238 | 4.0 | 8.0 | 0.00 | 0.00 | 0.00 | 37 | 1012.2 |
| 20260905015128 | 75 | 248 | 4.0 | 8.0 | 0.00 | 0.00 | 0.00 | 36 | 1012.3 |
| 20260905014532 | 75 | 236 | 4.0 | 8.0 | 0.00 | 0.00 | 0.00 | 34 | 1012.2 |
| 20260905014032 | 76 | 239 | 4.0 | 8.0 | 0.00 | 0.00 | 0.00 | 33 | 1012.2 |
| 20260905013834 | 76 | 217 | 4.0 | 8.0 | 0.00 | 0.00 | 0.00 | 33 | 1012.1 |
| 20260905012710 | 76 | 198 | 4.0 | 7.0 | 0.00 | 0.00 | 0.00 | 34 | 1012.1 |
| 20260905012210 | 76 | 238 | 4.0 | 8.0 | 0.00 | 0.00 | 0.00 | 34 | 1012.1 |
| 20260905011710 | 77 | 208 | 4.0 | 8.0 | 0.00 | 0.00 | 0.00 | 35 | 1012.0 |
| 20260905011210 | 77 | 226 | 4.0 | 10.0 | 0.00 | 0.00 | 0.00 | 36 | 1012.0 |
| 20260905010710 | 77 | 231 | 4.0 | 10.0 | 0.00 | 0.00 | 0.00 | 39 | 1012.0 |
| 20260905010210 | 77 | 259 | 4.0 | 8.0 | 0.00 | 0.00 | 0.00 | 39 | 1012.0 |
| 20260905005934 | 77 | 224 | 4.0 | 9.0 | 0.00 | 0.00 | 0.00 | 39 | 1012.1 |
| 20260905004902 | 77 | 230 | 5.0 | 10.0 | 0.00 | 0.00 | 0.00 | 39 | 1012.1 |
| 20260905004400 | 78 | 194 | 6.0 | 10.0 | 0.00 | 0.00 | 0.00 | 40 | 1012.0 |
| 20260905003835 | 78 | 252 | 6.0 | 10.0 | 0.00 | 0.00 | 0.00 | 39 | 1012.1 |
| 20260905003333 | 78 | 234 | 5.0 | 10.0 | 0.00 | 0.00 | 0.00 | 39 | 1012.0 |
| 20260905002835 | 79 | 234 | 5.0 | 11.0 | 0.00 | 0.00 | 0.00 | 39 | 1012.0 |
| 20260905002333 | 79 | 265 | 5.0 | 11.0 | 0.00 | 0.00 | 0.00 | 40 | 1012.0 |
| 20260905001836 | 79 | 244 | 5.0 | 9.0 | 0.00 | 0.00 | 0.00 | 39 | 1012.0 |
| 20260905001335 | 79 | 229 | 5.0 | 12.0 | 0.00 | 0.00 | 0.00 | 39 | 1012.0 |
| 20260905000834 | 79 | 182 | 5.0 | 12.0 | 0.00 | 0.00 | 0.00 | 39 | 1012.0 |
| 20260905000333 | 79 | 213 | 5.0 | 10.0 | 0.00 | 0.00 | 0.00 | 39 | 1012.0 |
| 20260904235830 | 80 | 182 | 5.0 | 10.0 | 0.00 | 0.00 | 0.00 | 38 | 1012.0 |
| 20260904235329 | 80 | 217 | 5.0 | 12.0 | 0.00 | 0.00 | 0.00 | 38 | 1012.0 |
| 20260904234830 | 80 | 239 | 5.0 | 12.0 | 0.00 | 0.00 | 0.00 | 38 | 1012.0 |
| 20260904234331 | 80 | 209 | 7.0 | 12.0 | 0.00 | 0.00 | 0.00 | 38 | 1012.1 |
| 20260904234022 | 80 | 238 | 7.0 | 13.0 | 0.00 | 0.00 | 0.00 | 38 | 1012.1 |
| 20260904233258 | 80 | 178 | 6.0 | 13.0 | 0.00 | 0.00 | 0.00 | 38 | 1012.1 |
| 20260904233020 | 81 | 234 | 6.0 | 12.0 | 0.00 | 0.00 | 0.00 | 37 | 1012.2 |
| 20260904232522 | 81 | 232 | 7.0 | 12.0 | 0.00 | 0.00 | 0.00 | 37 | 1012.2 |
| 20260904231802 | 81 | 215 | 6.0 | 11.0 | 0.00 | 0.00 | 0.00 | 37 | 1012.1 |
| 20260904231258 | 81 | 202 | 5.0 | 12.0 | 0.00 | 0.00 | 0.00 | 37 | 1012.1 |
| 20260904231016 | 81 | 229 | 6.0 | 12.0 | 0.00 | 0.00 | 0.00 | 37 | 1012.2 |
| 20260904230254 | 81 | 231 | 6.0 | 12.0 | 0.00 | 0.00 | 0.00 | 37 | 1012.2 |
| 20260904225754 | 82 | 235 | 6.0 | 11.0 | 0.00 | 0.00 | 0.00 | 38 | 1012.2 |
| 20260904225254 | 82 | 226 | 6.0 | 11.0 | 0.00 | 0.00 | 0.00 | 38 | 1012.2 |
| 20260904225011 | 81 | 257 | 5.0 | 10.0 | 0.00 | 0.00 | 0.00 | 37 | 1012.3 |
| 20260904224248 | 82 | 215 | 3.0 | 8.0 | 0.00 | 0.00 | 0.00 | 38 | 1012.2 |
| 20260904223746 | 81 | 223 | 3.0 | 8.0 | 0.00 | 0.00 | 0.00 | 39 | 1012.3 |
| 20260904223246 | 80 | 256 | 3.0 | 8.0 | 0.00 | 0.00 | 0.00 | 39 | 1012.4 |
| 20260904222716 | 79 | 136 | 5.0 | 10.0 | 0.00 | 0.00 | 0.00 | 40 | 1012.4 |
| 20260904222158 | 80 | 190 | 6.0 | 16.0 | 0.00 | 0.00 | 0.00 | 40 | 1012.3 |
| 20260904221700 | 80 | 142 | 4.0 | 16.0 | 0.00 | 0.00 | 0.00 | 39 | 1012.4 |
| 20260904221144 | 79 | 237 | 3.0 | 10.0 | 0.00 | 0.00 | 0.00 | 39 | 1012.5 |
| 20260904220644 | 80 | 317 | 3.0 | 10.0 | 0.00 | 0.00 | 0.00 | 38 | 1012.4 |
| 20260904220356 | 80 | 320 | 3.0 | 9.0 | 0.00 | 0.00 | 0.00 | 38 | 1012.4 |
| 20260904215856 | 80 | 253 | 4.0 | 9.0 | 0.00 | 0.00 | 0.00 | 39 | 1012.5 |
| 20260904215133 | 79 | 325 | 4.0 | 10.0 | 0.00 | 0.00 | 0.00 | 39 | 1012.4 |
| 20260904214858 | 78 | 22 | 4.0 | 10.0 | 0.00 | 0.00 | 0.00 | 41 | 1012.5 |